Regional Weather Roundup
Issued by NWS

Home | Current Version | Previous Version | Graphics & Text | Print | Product List | Glossary On
Versions: 1 2 3 4 5 6 7 8 9 10 11 12 13 14 15 16 17 18 19 20 21 22 23 24 25 26 27 28 29 30 31 32 33 34 35 36 37 38 39 40 41 42 43 44 45 46 47 48 49 50
000
ASUS43 KMKX 211811
RWRWI

WISCONSIN REGIONAL WEATHER ROUNDUP
NATIONAL WEATHER SERVICE MILWAUKEE/SULLIVAN WI
100 PM CDT SUN SEP 21 2014

NOTE: "FAIR" INDICATES FEW OR NO CLOUDS BELOW 12,000 FEET WITH NO
SIGNIFICANT WEATHER AND/OR OBSTRUCTIONS TO VISIBILITY.

WIZ001-002-006>008-014>016-023>028-211900-
NORTHWEST WISCONSIN

CITY           SKY/WX    TMP DP  RH WIND       PRES   REMARKS
SUPERIOR ARPT  SUNNY     59  46  62 NE6       30.12R
6HR MIN TEMP:  49; 6HR MAX TEMP:  61;

ASHLAND        CLOUDY    53  45  74 NE12      30.12R
6HR MIN TEMP:  50; 6HR MAX TEMP:  56;

HAYWARD        PTSUNNY   55  43  63 N15       30.10R
6HR MIN TEMP:  49; 6HR MAX TEMP:  56;

SIREN          MOSUNNY   61  44  55 N13G18    30.11S
6HR MIN TEMP:  51; 6HR MAX TEMP:  61;

RICE LAKE      MOSUNNY   60  45  57 N14       30.10S
6HR MIN TEMP:  51; 6HR MAX TEMP:  60;

LADYSMITH      MOSUNNY   58  44  61 NW13G18   30.09R
6HR MIN TEMP:  51; 6HR MAX TEMP:  58;

EAU CLAIRE     PTSUNNY   62  45  53 N13G22    30.07R
6HR MIN TEMP:  53; 6HR MAX TEMP:  63; 6HR PCP: TRACE;

MENOMONIE      MOCLDY    62  45  52 NW17      30.09R
6HR MIN TEMP:  54; 6HR MAX TEMP:  64;

NEW RICHMOND   MOSUNNY   63  44  50 N14       30.12S
6HR MIN TEMP:  51; 6HR MAX TEMP:  63;

OSCEOLA        MOSUNNY   61  47  61 NW16      30.15S
6HR MIN TEMP:  52; 6HR MAX TEMP:  61;

$$

WIZ003>005-009-010-017-018-211900-
NORTH CENTRAL WISCONSIN

CITY           SKY/WX    TMP DP  RH WIND       PRES   REMARKS
WOODRUFF       CLOUDY    52  42  69 N14G21    30.04R
6HR MIN TEMP:  48; 6HR MAX TEMP:  52;

RHINELANDER    CLOUDY    50  39  66 N13G21    30.03R
6HR MIN TEMP:  47; 6HR MAX TEMP:  51; 6HR PCP: TRACE;

EAGLE RIVER    CLOUDY    47  37  70 N15G23    30.03S
6HR MIN TEMP:  45; 6HR MAX TEMP:  49;

LAND O LAKES   CLOUDY    46  38  73 N18G25    30.05R
6HR MIN TEMP:  45; 6HR MAX TEMP:  48; 6HR PCP:  0.05;

PHILLIPS       CLOUDY    51  43  74 N12G20    30.06R
6HR MIN TEMP:  48; 6HR MAX TEMP:  51;

TOMAHAWK       PTSUNNY   53  41  63 NW12G24   30.04S
6HR MIN TEMP:  48; 6HR MAX TEMP:  53;

MEDFORD        PTSUNNY   55  44  64 N16       30.04R
6HR MIN TEMP:  50; 6HR MAX TEMP:  55; 6HR PCP:  0.01;

MERRILL        CLOUDY    53  41  64 N15G25    30.03R
6HR MIN TEMP:  50; 6HR MAX TEMP:  54;

$$

WIZ029-030-035-036-043>047-211900-
CENTRAL WISCONSIN

CITY           SKY/WX    TMP DP  RH WIND       PRES   REMARKS
WAUSAU         CLOUDY    54  41  61 N14G22    30.01R
6HR MIN TEMP:  52; 6HR MAX TEMP:  55; 6HR PCP:  0.01;

MOSINEE        CLOUDY    54  43  66 NW18      30.03R
MARSHFIELD     PTSUNNY   59  44  57 N23G29    30.03R
6HR MIN TEMP:  54; 6HR MAX TEMP:  60; 6HR PCP:  0.02;

STEVENS POINT  CLOUDY    54  41  60 N14G26    30.02R
6HR MIN TEMP:  51; 6HR MAX TEMP:  56; 6HR PCP:  0.02;

WAUPACA        PTSUNNY   58  43  56 N15G23    29.99R
6HR MIN TEMP:  56; 6HR MAX TEMP:  60; 6HR PCP:  0.05;

WAUTOMA        MOSUNNY   61  43  51 N17G29    30.00R
6HR MIN TEMP:  54; 6HR MAX TEMP:  62; 6HR PCP: TRACE;

WISC RAPIDS    PTSUNNY   59  43  55 NW17G24   30.03R
6HR MIN TEMP:  53; 6HR MAX TEMP:  60; 6HR PCP: TRACE;

CAMP DOUGLAS   PTSUNNY   61  48  63 NW17G24   30.03R
                                      6HR PCP: TRACE;

$$

WIZ011>013-019>022-031-037>040-048>050-211900-
NORTHEAST WISCONSIN

CITY           SKY/WX    TMP DP  RH WIND       PRES   REMARKS
ANTIGO         CLOUDY    50  41  70 N21G26    30.01R
6HR MIN TEMP:  47; 6HR MAX TEMP:  52; 6HR PCP:  0.01;

STURGEON BAY   CLOUDY    54  43  66 N18G28    29.93R
6HR MIN TEMP:  54; 6HR MAX TEMP:  55;

GREEN BAY      CLOUDY    57  47  69 NW15      29.96R
6HR MIN TEMP:  55; 6HR MAX TEMP:  59; 6HR PCP:  0.01;

MANITOWOC      CLOUDY    57  50  77 N17G26    29.92R
6HR MIN TEMP:  55; 6HR MAX TEMP:  59; 6HR PCP:  0.12;

APPLETON       PTSUNNY   54  43  66 NW21G28   29.97R
CLINTONVILLE   CLOUDY    54  41  62 N12G21    29.99R
OSHKOSH        PTSUNNY   58  46  64 N18G30    29.96R
6HR MIN TEMP:  55; 6HR MAX TEMP:  60; 6HR PCP:  0.01;

$$

WIZ032>034-041-042-053>061-211900-
SOUTHWEST WISCONSIN

CITY           SKY/WX    TMP DP  RH WIND       PRES   REMARKS
LA CROSSE      MOSUNNY   67  46  47 NW16G23   30.05R
6HR MIN TEMP:  57; 6HR MAX TEMP:  67;

SPARTA         PTSUNNY   61  44  53 NW17G25   30.05R
6HR MIN TEMP:  55; 6HR MAX TEMP:  62;

VIROQUA        FAIR      62  49  62 NW20G25   30.05R
6HR MIN TEMP:  53; 6HR MAX TEMP:  62;

BOSCOBEL       CLOUDY    63  50  62 NW14G23   30.04R
6HR MIN TEMP:  57; 6HR MAX TEMP:  64;

PRAIRIE DU CHI PTSUNNY   63  49  61 NW12G20   30.05R
6HR MIN TEMP:  56; 6HR MAX TEMP:  63;

PLATTEVILLE    CLOUDY    59  53  79 NW9       30.04R
6HR MIN TEMP:  54; 6HR MAX TEMP:  60;

$$

WIZ056-057-062-063-064-067-068-211900-
SOUTH CENTRAL WISCONSIN

CITY           SKY/WX    TMP DP  RH WIND       PRES   REMARKS
BARABOO/DELLS  PTSUNNY   61  45  56 N14G22    30.00R
6HR MIN TEMP:  53; 6HR MAX TEMP:  61;

LONE ROCK      CLOUDY    65  53  65 N14       30.02R
6HR MIN TEMP:  60; 6HR MAX TEMP:  67; 6HR PCP:  0.01;

WATERTOWN      CLOUDY    62  51  67 N16       29.94R
6HR MIN TEMP:  54; 6HR MAX TEMP:  63; 6HR PCP:  0.01;

MADISON        PTSUNNY   58  53  84 NW12G25   29.98R
6HR MIN TEMP:  55; 6HR MAX TEMP:  65; 6HR PCP: TRACE;

MIDDLETON      CLOUDY    64  53  68 NW15G21   29.99R
6HR MIN TEMP:  56; 6HR MAX TEMP:  66;

MONROE         PTSUNNY   63  52  67 NW14G22   29.99R
JANESVILLE     PTSUNNY   64  48  55 NW13G18   29.96R
$$

WIZ051-052-058>065-066-070>072-211900-
SOUTHEAST WISCONSIN

CITY           SKY/WX    TMP DP  RH WIND       PRES   REMARKS
MILWAUKEE      PTSUNNY   62  51  67 N13G21    29.92R
6HR MIN TEMP:  56; 6HR MAX TEMP:  62; 6HR PCP: TRACE;

WAUKESHA       PTSUNNY   61  52  72 NW14G23   29.94R
MILWAUKEE/TIMM CLOUDY    61  52  72 MISG      29.92R
RACINE         CLOUDY    62  51  67 NW18G26   29.93R
6HR MIN TEMP:  56; 6HR MAX TEMP:  63; 6HR PCP:  0.02;

BURLINGTON     PTSUNNY   63  50  62 N13G23    29.94R
6HR MIN TEMP:  53; 6HR MAX TEMP:  63;

KENOSHA        CLOUDY    62  52  69 N14G23    29.93R
6HR MIN TEMP:  56; 6HR MAX TEMP:  63; 6HR PCP: TRACE;

FOND DU LAC    PTSUNNY   59  49  69 N26G32    29.97R
6HR MIN TEMP:  55; 6HR MAX TEMP:  61; 6HR PCP:  0.07;

SHEBOYGAN      CLOUDY    61  48  62 N15       29.92R
6HR MIN TEMP:  55; 6HR MAX TEMP:  64; 6HR PCP:  0.02;

WEST BEND      RAIN      57  50  77 NW17G24   29.94R
JUNEAU         CLOUDY    60  50  70 NW16G26   29.95R
6HR MIN TEMP:  53; 6HR MAX TEMP:  62; 6HR PCP:  0.02;

$$

LSZ147-162-211900-
LAKE SUPERIOR

STATION/POSITION TIME  TEMP    WIND        PRES    WAVE
                       AIR SEA DIR/SP/G            HT/PER
                 (UTC) (F)     (DEG/KT/KT) (MB)    (FT/S)
W MID LAKE BUOY  1750   46 46  300/  4/  6 1019.3R   3/ 5
DEVILS ISLAND    1800   48      20/  3/  4 1020.3R
PORT WING        1700   53      40/ 12/ 14 1019.6
SAXON HARBOR     1700   50      20/ 15/ 19 1019.3R
$$

LMZ867-665-643>646-211900-
LAKE MICHIGAN

STATION/POSITION TIME  TEMP    WIND        PRES    WAVE
                       AIR SEA DIR/SP/G            HT/PER
                 (UTC) (F)     (DEG/KT/KT) (MB)    (FT/S)
N MID LAKE BUOY  1750   51 58  340/ 25/ 31 1011.4R   6/ 6
NORTHPORT PIER   1706   52     350/ 29/ 29 1012.5R
SISTER BAY       1657          360/ 28/ 34   N/A
KEWAUNEE LAKESHO 1700   56     340/ 12/ 19 1011.2R
SHEBOYGAN LAKESH 1800   56 51  350/ 17/ 19 1013.4R
PORT WASHINGTON  1700   63     360/  8/ 20 1012.5
ATWATER BUOY     1800   58     340/ 12/ 12 1013.9R
MILWAUKEE LAKESH 1700   61     340/ 13/ 17   N/A
S MID LAKE BUOY  1750   59 62  330/ 27/ 33 1011.3R   7/ 6
KENOSHA   LAKESH 1800   62     320/ 11/ 24 1012.9R
$$

TC  - TEMPERATURE IN CELSIUS
VSB - VISIBILITY IN STATUTE MILES
WCI - WIND CHILL INDEX
HX  - HEAT INDEX



USA.gov is the U.S. government's official web portal to all federal, state and local government web resources and services.